Regional Weather Roundup
Issued by NWS Sioux Falls, SD

Home | Current Version | Previous Version | Graphics & Text | Print | Product List | Glossary Off
Versions: 1 2 3 4 5 6 7 8 9 10 11 12 13 14 15 16 17 18 19 20 21 22 23 24 25 26 27 28 29 30 31 32 33 34 35 36 37 38 39 40 41 42 43 44 45 46 47 48 49 50

000
ASUS43 KFSD 232302
RWRFSD

WEATHER ROUNDUP FOR SE SOUTH DAKOTA/SW MINNESOTA/NW IOWA
NATIONAL WEATHER SERVICE SIOUX FALLS SD
600 PM CDT SAT JUL 23 2016

NOTE: "FAIR" INDICATES FEW OR NO CLOUDS BELOW 12,000 FEET WITH NO
SIGNIFICANT WEATHER AND OR OBSTRUCTIONS TO VISIBILITY.


SDZ038>040-050-052>070-240000-
SOUTHEAST SOUTH DAKOTA

CITY           SKY/WX    TMP DP  RH WIND       PRES   REMARKS
BROOKINGS      SUNNY     89  76  65 S7        29.75S HX 100
CHAMBERLAIN    SUNNY     96  70  42 NW16G23   29.76R HX 103
HURON          SUNNY     94  71  47 VRB5      29.69S HX 101
MADISON        FAIR      88  73  62 SW9       29.76S HX  96
MITCHELL       SUNNY     97  72  44 CALM      29.71S HX 105
SIOUX FALLS    MOSUNNY   91  72  53 SW5       29.74S HX  98
WINNER         FAIR      97  56  25 NW23G31   29.81R HX  95
YANKTON        SUNNY     93  72  49 S10       29.71S HX 100
$$

MNZ071-072-080-081-089-090-097-098-240000-
SOUTHWEST MINNESOTA

CITY           SKY/WX    TMP DP  RH WIND       PRES   REMARKS
FAIRMONT       CLOUDY    84  75  74 SE15      29.78F
JACKSON        MOSUNNY   86  73  66 S10       29.79F
LUVERNE        SUNNY     88  75  66 S10       29.76S HX  97
MARSHALL       MOSUNNY   87  79  76 SE13      29.74F HX 101
MONTEVIDEO     SUNNY     84  77  79 S15G21    29.75S
REDWOOD FALLS  PTSUNNY   83  76  79 E10       29.75F
TRACY          SUNNY     87  80  77 SE12      29.75F HX 103
WINDOM         SUNNY     86  73  66 SE10      29.77F
WORTHINGTON    SUNNY     86  77  74 S9G17     29.78F HX  97
$$

IAZ001>003-012>014-020>022-031-032-NEZ013-014-SDZ071-240000-
NORTHWEST IOWA

CITY           SKY/WX    TMP DP  RH WIND       PRES   REMARKS
CHEROKEE       CLOUDY    85  77  76 S10       29.77S HX  96
DENISON        SUNNY     88  77  70 S14       29.77F HX 100
ESTHERVILLE    CLOUDY    84  78  82 S13       29.79F HX  95
LE MARS        CLOUDY    90  77  66 S15       29.76S HX 102
SHELDON        CLOUDY    84  79  84 SE9       29.77R HX  96
SIOUX CITY     SUNNY     91  76  61 S13       29.75S HX 103
SPENCER        CLOUDY    85  76  74 S8        29.78F
STORM LAKE     SUNNY     84  75  74 S9G17     29.80F
$$

ABBREVIATIONS USED IN REMARKS
   TC - TEMPERATURE IN CELSIUS
  WCI - WIND CHILL INDEX
   HX - HEAT INDEX
  VSB - VISIBILITY




USA.gov is the U.S. government's official web portal to all federal, state and local government web resources and services.